Regional Weather Roundup
Issued by NWS Sioux Falls, SD

Home | Current Version | Previous Version | Graphics & Text | Print | Product List | Glossary Off
Versions: 1 2 3 4 5 6 7 8 9 10 11 12 13 14 15 16 17 18 19 20 21 22 23 24 25 26 27 28 29 30 31 32 33 34 35 36 37 38 39 40 41 42 43 44 45 46 47 48 49 50

000
ASUS43 KFSD 061602
RWRFSD

WEATHER ROUNDUP FOR SE SOUTH DAKOTA/SW MINNESOTA/NW IOWA
NATIONAL WEATHER SERVICE SIOUX FALLS SD
1100 AM CDT MON JUL 06 2015

NOTE: "FAIR" INDICATES FEW OR NO CLOUDS BELOW 12,000 FEET WITH NO
SIGNIFICANT WEATHER AND OR OBSTRUCTIONS TO VISIBILITY.


SDZ038>040-050-052>070-061700-
SOUTHEAST SOUTH DAKOTA

CITY           SKY/WX    TMP DP  RH WIND       PRES   REMARKS
BROOKINGS      CLOUDY    64  59  82 N14       30.01R
CHAMBERLAIN    CLOUDY    68  61  79 N12       30.07S HAZE
HURON          CLOUDY    70  62  76 N16       30.03R HAZE
MADISON        CLOUDY    64  64 100 N14       30.00R
MITCHELL       CLOUDY    70  61  73 N14G21    30.02R HAZE
SIOUX FALLS    CLOUDY    70  64  81 N18G26    29.96R HAZE
WINNER         CLOUDY    70  60  70 N17       30.10R HAZE
YANKTON        CLOUDY    68  64  88 N15       29.95R
$$

MNZ071-072-080-081-089-090-097-098-061700-
SOUTHWEST MINNESOTA

CITY           SKY/WX    TMP DP  RH WIND       PRES   REMARKS
FAIRMONT       CLOUDY    72  64  78 SW9       29.86F
JACKSON        CLOUDY    70  68  94 N7        29.90R
MARSHALL       CLOUDY    66  61  82 N16       29.95R
MONTEVIDEO     FAIR      68  66  94 NE10      29.96R FOG
PIPESTONE      FAIR      66  63  88 N10G18    29.96S FOG
REDWOOD FALLS  PTSUNNY   67  59  75 N12       29.91R HAZE
TRACY          LGT RAIN  68  65  92 N13       29.95R
WINDOM         CLOUDY    66  64  94 NW18G24   29.92R FOG
WORTHINGTON    CLOUDY    66  61  82 N23       29.93R
$$

IAZ001>003-012>014-020>022-031-032-NEZ013-014-SDZ071-061700-
NORTHWEST IOWA

CITY           SKY/WX    TMP DP  RH WIND       PRES   REMARKS
DENISON        PTSUNNY   72  72 100 W7        29.89R FOG
ESTHERVILLE    LGT RAIN  70  68  93 W10       29.89R
SIOUX CITY     CLOUDY    74  69  85 NW9       29.89S
SPENCER        CLOUDY    72  67  84 NW9       29.90R
$$

ABBREVIATIONS USED IN REMARKS
   TC - TEMPERATURE IN CELSIUS
  WCI - WIND CHILL INDEX
   HX - HEAT INDEX
  VSB - VISIBILITY




USA.gov is the U.S. government's official web portal to all federal, state and local government web resources and services.